TimeEST,TemperatureF,Dew PointF,Humidity,Sea Level PressureIn,VisibilityMPH,Wind Direction,Wind SpeedMPH,Gust SpeedMPH,PrecipitationIn,Events,Conditions,WindDirDegrees,DateUTC
12:56 AM,21.0,10.9,65,30.38,10.0,WNW,12.7,-,N/A,,Mostly Cloudy,300,2012-01-03 05:56:00
1:56 AM,21.0,10.0,63,30.40,10.0,NW,11.5,-,N/A,,Overcast,310,2012-01-03 06:56:00
2:56 AM,19.0,9.0,65,30.42,10.0,WNW,9.2,-,N/A,,Clear,300,2012-01-03 07:56:00
3:56 AM,19.9,10.0,65,30.43,10.0,WNW,8.1,-,N/A,,Clear,300,2012-01-03 08:56:00
4:56 AM,19.0,10.0,68,30.43,10.0,WNW,9.2,-,N/A,,Clear,290,2012-01-03 09:56:00
5:56 AM,18.0,10.0,71,30.44,10.0,WNW,9.2,-,N/A,,Clear,300,2012-01-03 10:56:00
6:56 AM,17.1,9.0,71,30.44,10.0,West,6.9,-,N/A,,Clear,280,2012-01-03 11:56:00
7:56 AM,17.1,9.0,71,30.45,10.0,West,5.8,-,N/A,,Partly Cloudy,280,2012-01-03 12:56:00
8:56 AM,19.9,10.0,65,30.48,10.0,WSW,5.8,-,N/A,,Partly Cloudy,250,2012-01-03 13:56:00
9:56 AM,21.9,10.0,60,30.50,10.0,West,6.9,-,N/A,,Partly Cloudy,280,2012-01-03 14:56:00
10:56 AM,24.1,10.0,55,30.51,10.0,WNW,11.5,-,N/A,,Partly Cloudy,290,2012-01-03 15:56:00
11:56 AM,26.1,8.1,47,30.48,10.0,WNW,11.5,-,N/A,,Partly Cloudy,300,2012-01-03 16:56:00
12:56 PM,28.0,6.1,39,30.45,10.0,WNW,11.5,18.4,N/A,,Partly Cloudy,300,2012-01-03 17:56:00
1:56 PM,28.9,7.0,40,30.43,10.0,West,9.2,-,N/A,,Partly Cloudy,280,2012-01-03 18:56:00
2:56 PM,30.9,5.0,33,30.40,10.0,West,9.2,-,N/A,,Clear,280,2012-01-03 19:56:00
3:56 PM,30.0,3.9,33,30.40,10.0,West,9.2,-,N/A,,Partly Cloudy,280,2012-01-03 20:56:00
4:56 PM,28.9,3.0,33,30.40,10.0,WSW,8.1,-,N/A,,Partly Cloudy,250,2012-01-03 21:56:00
5:56 PM,27.0,5.0,39,30.40,10.0,WSW,5.8,-,N/A,,Partly Cloudy,250,2012-01-03 22:56:00
6:56 PM,26.1,6.1,43,30.39,10.0,SW,4.6,-,N/A,,Clear,230,2012-01-03 23:56:00
7:56 PM,26.1,6.1,43,30.38,10.0,South,4.6,-,N/A,,Clear,190,2012-01-04 00:56:00
8:56 PM,25.0,8.1,49,30.35,10.0,SE,4.6,-,N/A,,Clear,140,2012-01-04 01:56:00
9:56 PM,24.1,9.0,53,30.34,10.0,South,4.6,-,N/A,,Partly Cloudy,180,2012-01-04 02:56:00
10:56 PM,21.9,10.9,63,30.32,10.0,SE,4.6,-,N/A,,Partly Cloudy,130,2012-01-04 03:56:00
11:56 PM,26.1,9.0,49,30.29,10.0,South,6.9,-,N/A,,Scattered Clouds,180,2012-01-04 04:56:00